contact:dominique.lefevre@mio.osupytheas.fr, maurice.libes@osupytheas.fr, didier.mallarino@osupytheas.fr
Project:EMSO http://www.emso-fr.org/EMSO-France
Depth: 2436.0 m
Title:EMSO Ligure Ouest : Data MII capteur MICROCAT
DateTime_Computer,Latitude,Longitude,Temperature,Conductivity,Pressure,DateTime_Instrument
DateTime_Computer,Latitude,Longitude,degC,S m-1,dbar,DateTime_Instrument
2020-07-01T00:01:24Z,42.805,6.029,13.2983,4.60004,2470.077,2020-7-01T02:02:10Z
2020-07-01T00:04:27Z,42.805,6.029,13.2983,4.59999,2470.053,2020-7-01T02:05:13Z
2020-07-01T00:07:31Z,42.805,6.029,13.2983,4.60010,2470.017,2020-7-01T02:08:16Z
2020-07-01T00:10:34Z,42.805,6.029,13.2980,4.60005,2470.04,2020-7-01T02:11:19Z
2020-07-01T00:13:37Z,42.805,6.029,13.2983,4.60020,2470.03,2020-7-01T02:14:23Z
2020-07-01T00:16:40Z,42.805,6.029,13.2979,4.60011,2470.04,2020-7-01T02:17:26Z
2020-07-01T00:19:43Z,42.805,6.029,13.2980,4.60004,2470.04,2020-7-01T02:20:29Z
2020-07-01T00:22:47Z,42.805,6.029,13.2986,4.60015,2470.063,2020-7-01T02:23:32Z
2020-07-01T00:25:50Z,42.805,6.029,13.2987,4.60013,2470.04,2020-7-01T02:26:36Z
2020-07-01T00:28:53Z,42.805,6.029,13.2981,4.60001,2470.063,2020-7-01T02:29:39Z
2020-07-01T00:31:56Z,42.805,6.029,13.2980,4.60001,2470.053,2020-7-01T02:32:42Z
2020-07-01T00:35:00Z,42.805,6.029,13.2979,4.59999,2470.017,2020-7-01T02:35:45Z
2020-07-01T00:38:03Z,42.805,6.029,13.2982,4.59996,2470.04,2020-7-01T02:38:48Z
2020-07-01T00:41:06Z,42.805,6.029,13.2984,4.59998,2470.04,2020-7-01T02:41:52Z
2020-07-01T00:44:09Z,42.805,6.029,13.2984,4.59996,2470.077,2020-7-01T02:44:55Z
2020-07-01T00:47:12Z,42.805,6.029,13.2982,4.59996,2470.077,2020-7-01T02:47:58Z
2020-07-01T00:50:16Z,42.805,6.029,13.2982,4.60006,2470.053,2020-7-01T02:51:01Z
2020-07-01T00:53:19Z,42.805,6.029,13.2979,4.59998,2470.04,2020-7-01T02:54:04Z
2020-07-01T00:56:22Z,42.805,6.029,13.2981,4.59999,2470.063,2020-7-01T02:57:08Z
2020-07-01T00:59:25Z,42.805,6.029,13.2984,4.59999,2470.087,2020-7-01T03:00:11Z
2020-07-01T01:02:28Z,42.805,6.029,13.2986,4.59991,2470.063,2020-7-01T03:03:14Z
2020-07-01T01:05:32Z,42.805,6.029,13.2983,4.60000,2470.077,2020-7-01T03:06:17Z
2020-07-01T01:08:35Z,42.805,6.029,13.2984,4.60002,2470.1,2020-7-01T03:09:20Z
2020-07-01T01:11:38Z,42.805,6.029,13.2979,4.60016,2470.04,2020-7-01T03:12:24Z
2020-07-01T01:14:41Z,42.805,6.029,13.2990,4.60020,2470.124,2020-7-01T03:15:27Z
2020-07-01T01:17:45Z,42.805,6.029,13.2982,4.59999,2470.087,2020-7-01T03:18:30Z
2020-07-01T01:20:48Z,42.805,6.029,13.2980,4.60022,2470.087,2020-7-01T03:21:33Z
2020-07-01T01:23:51Z,42.805,6.029,13.2981,4.59990,2470.124,2020-7-01T03:24:37Z
2020-07-01T01:26:54Z,42.805,6.029,13.2984,4.59994,2470.087,2020-7-01T03:27:40Z
2020-07-01T01:29:57Z,42.805,6.029,13.2990,4.59994,2470.11,2020-7-01T03:30:43Z
2020-07-01T01:33:01Z,42.805,6.029,13.2986,4.60000,2470.087,2020-7-01T03:33:46Z
2020-07-01T01:36:04Z,42.805,6.029,13.2983,4.60019,2470.124,2020-7-01T03:36:49Z
2020-07-01T01:39:07Z,42.805,6.029,13.2978,4.60007,2470.087,2020-7-01T03:39:53Z
2020-07-01T01:42:10Z,42.805,6.029,13.2975,4.59990,2470.077,2020-7-01T03:42:56Z
2020-07-01T01:45:14Z,42.805,6.029,13.2984,4.60011,2470.147,2020-7-01T03:45:59Z
2020-07-01T01:48:17Z,42.805,6.029,13.2982,4.60016,2470.11,2020-7-01T03:49:03Z
2020-07-01T01:51:20Z,42.805,6.029,13.2991,4.60003,2470.1,2020-7-01T03:52:06Z
2020-07-01T01:54:23Z,42.805,6.029,13.2982,4.60010,2470.087,2020-7-01T03:55:09Z
2020-07-01T01:57:26Z,42.805,6.029,13.2987,4.60007,2470.04,2020-7-01T03:58:12Z
2020-07-01T02:00:30Z,42.805,6.029,13.2981,4.60001,2470.11,2020-7-01T04:01:15Z
2020-07-01T02:03:33Z,42.805,6.029,13.2984,4.60008,2470.087,2020-7-01T04:04:19Z
2020-07-01T02:06:36Z,42.805,6.029,13.2977,4.59996,2470.087,2020-7-01T04:07:22Z
2020-07-01T02:09:39Z,42.805,6.029,13.2984,4.60006,2470.124,2020-7-01T04:10:25Z
2020-07-01T02:12:43Z,42.805,6.029,13.2985,4.60005,2470.11,2020-7-01T04:13:28Z
2020-07-01T02:15:46Z,42.805,6.029,13.2985,4.60015,2470.1,2020-7-01T04:16:31Z
2020-07-01T02:18:50Z,42.805,6.029,13.2981,4.60013,2470.11,2020-7-01T04:19:35Z
2020-07-01T02:21:53Z,42.805,6.029,13.2999,4.60032,2470.133,2020-7-01T04:22:38Z
2020-07-01T02:24:56Z,42.805,6.029,13.2991,4.60035,2470.11,2020-7-01T04:25:42Z
2020-07-01T02:28:00Z,42.805,6.029,13.2991,4.60021,2470.133,2020-7-01T04:28:45Z
2020-07-01T02:31:03Z,42.805,6.029,13.2993,4.60039,2470.087,2020-7-01T04:31:49Z
2020-07-01T02:34:06Z,42.805,6.029,13.2991,4.60021,2470.1,2020-7-01T04:34:52Z
2020-07-01T02:37:09Z,42.805,6.029,13.2998,4.60041,2470.133,2020-7-01T04:37:55Z
2020-07-01T02:40:13Z,42.805,6.029,13.3000,4.60039,2470.133,2020-7-01T04:40:58Z
2020-07-01T02:43:16Z,42.805,6.029,13.2989,4.60014,2470.133,2020-7-01T04:44:02Z
2020-07-01T02:46:19Z,42.805,6.029,13.3002,4.60020,2470.11,2020-7-01T04:47:05Z
2020-07-01T02:49:22Z,42.805,6.029,13.3004,4.60023,2470.133,2020-7-01T04:50:08Z
2020-07-01T02:52:25Z,42.805,6.029,13.2985,4.60029,2470.11,2020-7-01T04:53:11Z
2020-07-01T02:55:29Z,42.805,6.029,13.2991,4.60014,2470.147,2020-7-01T04:56:15Z
2020-07-01T02:58:32Z,42.805,6.029,13.2988,4.60010,2470.11,2020-7-01T04:59:18Z
2020-07-01T03:01:35Z,42.805,6.029,13.2999,4.59999,2470.147,2020-7-01T05:02:21Z
2020-07-01T03:04:39Z,42.805,6.029,13.2983,4.60013,2470.147,2020-7-01T05:05:24Z
2020-07-01T03:07:42Z,42.805,6.029,13.2997,4.60011,2470.147,2020-7-01T05:08:27Z
2020-07-01T03:10:45Z,42.805,6.029,13.2982,4.60007,2470.124,2020-7-01T05:11:31Z
2020-07-01T03:13:48Z,42.805,6.029,13.2982,4.60001,2470.11,2020-7-01T05:14:34Z
2020-07-01T03:16:51Z,42.805,6.029,13.2996,4.60011,2470.133,2020-7-01T05:17:37Z
2020-07-01T03:19:55Z,42.805,6.029,13.2996,4.60012,2470.133,2020-7-01T05:20:40Z
2020-07-01T03:22:58Z,42.805,6.029,13.2982,4.60016,2470.124,2020-7-01T05:23:43Z
2020-07-01T03:26:01Z,42.805,6.029,13.3003,4.60013,2470.124,2020-7-01T05:26:47Z
2020-07-01T03:29:04Z,42.805,6.029,13.2983,4.60011,2470.133,2020-7-01T05:29:50Z
2020-07-01T03:32:08Z,42.805,6.029,13.2979,4.59998,2470.171,2020-7-01T05:32:53Z
2020-07-01T03:35:11Z,42.805,6.029,13.2993,4.60010,2470.156,2020-7-01T05:35:57Z
2020-07-01T03:38:14Z,42.805,6.029,13.2980,4.60000,2470.133,2020-7-01T05:39:00Z
2020-07-01T03:41:17Z,42.805,6.029,13.2979,4.60006,2470.133,2020-7-01T05:42:03Z
2020-07-01T03:44:21Z,42.805,6.029,13.2985,4.59996,2470.124,2020-7-01T05:45:06Z
2020-07-01T03:47:24Z,42.805,6.029,13.2985,4.60000,2470.11,2020-7-01T05:48:09Z
2020-07-01T03:50:27Z,42.805,6.029,13.2984,4.59992,2470.133,2020-7-01T05:51:13Z
2020-07-01T03:53:30Z,42.805,6.029,13.2979,4.59997,2470.133,2020-7-01T05:54:16Z
2020-07-01T03:56:34Z,42.805,6.029,13.2979,4.59997,2470.156,2020-7-01T05:57:19Z
2020-07-01T03:59:37Z,42.805,6.029,13.2984,4.59996,2470.11,2020-7-01T06:00:23Z
2020-07-01T04:02:40Z,42.805,6.029,13.2979,4.59996,2470.171,2020-7-01T06:03:26Z
2020-07-01T04:05:44Z,42.805,6.029,13.2979,4.59999,2470.147,2020-7-01T06:06:29Z
2020-07-01T04:08:47Z,42.805,6.029,13.2979,4.60011,2470.133,2020-7-01T06:09:33Z
2020-07-01T04:11:50Z,42.805,6.029,13.2987,4.60011,2470.133,2020-7-01T06:12:36Z
2020-07-01T04:14:53Z,42.805,6.029,13.2986,4.60009,2470.147,2020-7-01T06:15:39Z
2020-07-01T04:17:57Z,42.805,6.029,13.2981,4.59994,2470.133,2020-7-01T06:18:42Z
2020-07-01T04:21:00Z,42.805,6.029,13.2979,4.60006,2470.087,2020-7-01T06:21:45Z
2020-07-01T04:24:03Z,42.805,6.029,13.2986,4.60003,2470.133,2020-7-01T06:24:49Z
2020-07-01T04:27:06Z,42.805,6.029,13.2980,4.59998,2470.156,2020-7-01T06:27:52Z
2020-07-01T04:30:09Z,42.805,6.029,13.2979,4.59999,2470.156,2020-7-01T06:30:55Z
2020-07-01T04:33:13Z,42.805,6.029,13.2985,4.60009,2470.147,2020-7-01T06:33:58Z
2020-07-01T04:36:16Z,42.805,6.029,13.2990,4.60015,2470.156,2020-7-01T06:37:02Z
2020-07-01T04:39:19Z,42.805,6.029,13.2983,4.59997,2470.133,2020-7-01T06:40:05Z
2020-07-01T04:42:22Z,42.805,6.029,13.2977,4.59990,2470.133,2020-7-01T06:43:08Z
2020-07-01T04:45:26Z,42.805,6.029,13.2979,4.59994,2470.133,2020-7-01T06:46:11Z
2020-07-01T04:48:29Z,42.805,6.029,13.2986,4.59996,2470.133,2020-7-01T06:49:14Z
2020-07-01T04:51:32Z,42.805,6.029,13.2986,4.60017,2470.124,2020-7-01T06:52:18Z
2020-07-01T04:54:35Z,42.805,6.029,13.2982,4.60016,2470.133,2020-7-01T06:55:21Z
2020-07-01T04:57:39Z,42.805,6.029,13.2979,4.59998,2470.133,2020-7-01T06:58:24Z
2020-07-01T05:00:42Z,42.805,6.029,13.2983,4.60020,2470.133,2020-7-01T07:01:27Z
2020-07-01T05:03:45Z,42.805,6.029,13.2982,4.60001,2470.11,2020-7-01T07:04:31Z
2020-07-01T05:06:48Z,42.805,6.029,13.2993,4.60007,2470.11,2020-7-01T07:07:34Z
2020-07-01T05:09:52Z,42.805,6.029,13.2984,4.59994,2470.11,2020-7-01T07:10:37Z
2020-07-01T05:12:55Z,42.805,6.029,13.2979,4.59988,2470.124,2020-7-01T07:13:40Z
2020-07-01T05:15:58Z,42.805,6.029,13.2981,4.59995,2470.11,2020-7-01T07:16:43Z
2020-07-01T05:19:01Z,42.805,6.029,13.2979,4.59998,2470.11,2020-7-01T07:19:47Z
2020-07-01T05:22:04Z,42.805,6.029,13.2985,4.60016,2470.11,2020-7-01T07:22:50Z
2020-07-01T05:25:08Z,42.805,6.029,13.2982,4.60006,2470.11,2020-7-01T07:25:53Z
2020-07-01T05:28:11Z,42.805,6.029,13.2980,4.59996,2470.124,2020-7-01T07:28:57Z
2020-07-01T05:31:14Z,42.805,6.029,13.2983,4.60003,2470.087,2020-7-01T07:32:00Z
2020-07-01T05:34:17Z,42.805,6.029,13.2984,4.60004,2470.124,2020-7-01T07:35:03Z
2020-07-01T05:37:21Z,42.805,6.029,13.2982,4.60005,2470.11,2020-7-01T07:38:06Z
2020-07-01T05:40:24Z,42.805,6.029,13.2976,4.59999,2470.11,2020-7-01T07:41:09Z
2020-07-01T05:43:27Z,42.805,6.029,13.2977,4.60005,2470.087,2020-7-01T07:44:13Z
2020-07-01T05:46:30Z,42.805,6.029,13.2979,4.59997,2470.133,2020-7-01T07:47:16Z
2020-07-01T05:49:34Z,42.805,6.029,13.2979,4.59997,2470.11,2020-7-01T07:50:19Z
2020-07-01T05:52:37Z,42.805,6.029,13.2979,4.59993,2470.11,2020-7-01T07:53:22Z
2020-07-01T05:55:40Z,42.805,6.029,13.2979,4.59999,2470.133,2020-7-01T07:56:26Z
2020-07-01T05:58:43Z,42.805,6.029,13.2978,4.60002,2470.11,2020-7-01T07:59:29Z
2020-07-01T06:01:47Z,42.805,6.029,13.2978,4.59993,2470.063,2020-7-01T08:02:32Z
2020-07-01T06:04:50Z,42.805,6.029,13.2990,4.59993,2470.11,2020-7-01T08:05:35Z
2020-07-01T06:07:53Z,42.805,6.029,13.2983,4.59996,2470.124,2020-7-01T08:08:39Z
2020-07-01T06:10:56Z,42.805,6.029,13.2982,4.59999,2470.077,2020-7-01T08:11:42Z
2020-07-01T06:13:59Z,42.805,6.029,13.2979,4.59991,2470.1,2020-7-01T08:14:45Z
2020-07-01T06:17:03Z,42.805,6.029,13.2978,4.60005,2470.063,2020-7-01T08:17:48Z
2020-07-01T06:20:06Z,42.805,6.029,13.2977,4.59996,2470.077,2020-7-01T08:20:51Z
2020-07-01T06:23:09Z,42.805,6.029,13.2983,4.60002,2470.1,2020-7-01T08:23:55Z
2020-07-01T06:26:12Z,42.805,6.029,13.2979,4.60003,2470.11,2020-7-01T08:26:58Z
2020-07-01T06:29:16Z,42.805,6.029,13.2977,4.60003,2470.063,2020-7-01T08:30:01Z
2020-07-01T06:32:19Z,42.805,6.029,13.2980,4.59989,2470.11,2020-7-01T08:33:05Z
2020-07-01T06:35:22Z,42.805,6.029,13.2982,4.59997,2470.077,2020-7-01T08:36:08Z
2020-07-01T06:38:25Z,42.805,6.029,13.2978,4.60000,2470.077,2020-7-01T08:39:11Z
2020-07-01T06:41:29Z,42.805,6.029,13.2977,4.59994,2470.1,2020-7-01T08:42:14Z
2020-07-01T06:44:32Z,42.805,6.029,13.2976,4.59994,2470.1,2020-7-01T08:45:18Z
2020-07-01T06:47:35Z,42.805,6.029,13.2983,4.60003,2470.077,2020-7-01T08:48:21Z
2020-07-01T06:50:38Z,42.805,6.029,13.2980,4.60007,2470.063,2020-7-01T08:51:24Z
2020-07-01T06:53:41Z,42.805,6.029,13.2990,4.60010,2470.063,2020-7-01T08:54:27Z
2020-07-01T06:56:45Z,42.805,6.029,13.2985,4.60004,2470.087,2020-7-01T08:57:31Z
2020-07-01T06:59:48Z,42.805,6.029,13.2980,4.60006,2470.087,2020-7-01T09:00:34Z
2020-07-01T07:02:51Z,42.805,6.029,13.2981,4.60007,2470.077,2020-7-01T09:03:37Z
2020-07-01T07:05:54Z,42.805,6.029,13.2980,4.59994,2470.077,2020-7-01T09:06:40Z
2020-07-01T07:08:58Z,42.805,6.029,13.2986,4.60011,2470.03,2020-7-01T09:09:43Z
2020-07-01T07:12:01Z,42.805,6.029,13.2984,4.60004,2470.077,2020-7-01T09:12:47Z
2020-07-01T07:15:04Z,42.805,6.029,13.2986,4.60008,2470.063,2020-7-01T09:15:50Z
2020-07-01T07:18:07Z,42.805,6.029,13.2975,4.60007,2470.063,2020-7-01T09:18:53Z
2020-07-01T07:21:11Z,42.805,6.029,13.2981,4.60000,2470.1,2020-7-01T09:21:56Z
2020-07-01T07:24:14Z,42.805,6.029,13.2982,4.60027,2470.017,2020-7-01T09:24:59Z
2020-07-01T07:27:17Z,42.805,6.029,13.2982,4.60006,2470.063,2020-7-01T09:28:03Z
2020-07-01T07:30:20Z,42.805,6.029,13.2977,4.60006,2470.053,2020-7-01T09:31:06Z
2020-07-01T07:33:23Z,42.805,6.029,13.2981,4.60008,2470.017,2020-7-01T09:34:09Z
2020-07-01T07:36:27Z,42.805,6.029,13.2983,4.60014,2470.04,2020-7-01T09:37:12Z
2020-07-01T07:39:30Z,42.805,6.029,13.2993,4.60014,2470.017,2020-7-01T09:40:15Z
2020-07-01T07:42:33Z,42.805,6.029,13.2990,4.60027,2470.017,2020-7-01T09:43:19Z
2020-07-01T07:45:36Z,42.805,6.029,13.2980,4.60006,2470.017,2020-7-01T09:46:22Z
2020-07-01T07:48:39Z,42.805,6.029,13.2996,4.60014,2470.053,2020-7-01T09:49:25Z
2020-07-01T07:51:43Z,42.805,6.029,13.2982,4.60014,2470.017,2020-7-01T09:52:28Z
2020-07-01T07:54:46Z,42.805,6.029,13.2982,4.60010,2470.053,2020-7-01T09:55:32Z
2020-07-01T07:57:49Z,42.805,6.029,13.2979,4.60019,2470.017,2020-7-01T09:58:35Z
2020-07-01T08:00:52Z,42.805,6.029,13.2991,4.60018,2470.04,2020-7-01T10:01:38Z
2020-07-01T08:03:55Z,42.805,6.029,13.2975,4.60014,2470.04,2020-7-01T10:04:41Z
2020-07-01T08:06:59Z,42.805,6.029,13.2982,4.60018,2470.03,2020-7-01T10:07:44Z
2020-07-01T08:10:02Z,42.805,6.029,13.2983,4.60024,2470.053,2020-7-01T10:10:48Z
2020-07-01T08:13:05Z,42.805,6.029,13.2982,4.60037,2470.03,2020-7-01T10:13:51Z
2020-07-01T08:16:09Z,42.805,6.029,13.2986,4.60012,2470.03,2020-7-01T10:16:54Z
2020-07-01T08:19:12Z,42.805,6.029,13.2990,4.60037,2470.007,2020-7-01T10:19:58Z
2020-07-01T08:22:15Z,42.805,6.029,13.2983,4.60036,2470.017,2020-7-01T10:23:01Z
2020-07-01T08:25:18Z,42.805,6.029,13.2981,4.60016,2469.993,2020-7-01T10:26:04Z
2020-07-01T08:28:22Z,42.805,6.029,13.2990,4.60032,2470.017,2020-7-01T10:29:07Z
2020-07-01T08:31:25Z,42.805,6.029,13.2976,4.60010,2469.993,2020-7-01T10:32:11Z
2020-07-01T08:34:28Z,42.805,6.029,13.2999,4.60031,2470.017,2020-7-01T10:35:14Z
2020-07-01T08:37:31Z,42.805,6.029,13.2981,4.60035,2470.03,2020-7-01T10:38:17Z
2020-07-01T08:40:35Z,42.805,6.029,13.2990,4.60054,2469.97,2020-7-01T10:41:20Z
2020-07-01T08:43:38Z,42.805,6.029,13.2981,4.60023,2470.007,2020-7-01T10:44:24Z
2020-07-01T08:46:41Z,42.805,6.029,13.2986,4.60004,2470.03,2020-7-01T10:47:27Z
2020-07-01T08:49:44Z,42.805,6.029,13.2983,4.60014,2470.007,2020-7-01T10:50:30Z
2020-07-01T08:52:48Z,42.805,6.029,13.2996,4.60024,2469.984,2020-7-01T10:53:33Z
2020-07-01T08:55:51Z,42.805,6.029,13.3000,4.60036,2469.993,2020-7-01T10:56:37Z
2020-07-01T08:58:54Z,42.805,6.029,13.2990,4.60003,2470.03,2020-7-01T10:59:40Z
2020-07-01T09:01:57Z,42.805,6.029,13.2979,4.60014,2469.984,2020-7-01T11:02:43Z
2020-07-01T09:05:01Z,42.805,6.029,13.2985,4.60012,2469.96,2020-7-01T11:05:46Z
2020-07-01T09:08:04Z,42.805,6.029,13.2987,4.59988,2470.007,2020-7-01T11:08:50Z
2020-07-01T09:11:07Z,42.805,6.029,13.3010,4.60042,2470.007,2020-7-01T11:11:53Z
2020-07-01T09:14:10Z,42.805,6.029,13.2995,4.60024,2469.984,2020-7-01T11:14:56Z
2020-07-01T09:17:14Z,42.805,6.029,13.2996,4.60010,2470.007,2020-7-01T11:17:59Z
2020-07-01T09:20:17Z,42.805,6.029,13.2995,4.60006,2469.984,2020-7-01T11:21:02Z
2020-07-01T09:23:20Z,42.805,6.029,13.2982,4.60019,2469.97,2020-7-01T11:24:06Z
2020-07-01T09:26:23Z,42.805,6.029,13.2988,4.60014,2469.97,2020-7-01T11:27:09Z
2020-07-01T09:29:26Z,42.805,6.029,13.2998,4.60041,2469.96,2020-7-01T11:30:12Z
2020-07-01T09:32:30Z,42.805,6.029,13.2990,4.60046,2469.97,2020-7-01T11:33:15Z
2020-07-01T09:35:33Z,42.805,6.029,13.3008,4.60053,2469.923,2020-7-01T11:36:19Z
2020-07-01T09:38:36Z,42.805,6.029,13.2980,4.60019,2469.97,2020-7-01T11:39:22Z
2020-07-01T09:41:39Z,42.805,6.029,13.2988,4.60031,2469.97,2020-7-01T11:42:25Z
2020-07-01T09:44:42Z,42.805,6.029,13.2986,4.60033,2469.97,2020-7-01T11:45:28Z
2020-07-01T09:47:46Z,42.805,6.029,13.2981,4.60020,2469.984,2020-7-01T11:48:31Z
2020-07-01T09:50:49Z,42.805,6.029,13.2979,4.60038,2469.97,2020-7-01T11:51:35Z
2020-07-01T09:53:52Z,42.805,6.029,13.2982,4.60044,2469.947,2020-7-01T11:54:38Z
2020-07-01T09:56:56Z,42.805,6.029,13.2984,4.60021,2469.97,2020-7-01T11:57:41Z
2020-07-01T09:59:59Z,42.805,6.029,13.3016,4.60045,2469.97,2020-7-01T12:00:44Z
2020-07-01T10:03:02Z,42.805,6.029,13.2990,4.60066,2469.947,2020-7-01T12:03:48Z
2020-07-01T10:06:05Z,42.805,6.029,13.2984,4.60050,2469.97,2020-7-01T12:06:51Z
2020-07-01T10:09:08Z,42.805,6.029,13.2986,4.60019,2469.96,2020-7-01T12:09:54Z
2020-07-01T10:12:12Z,42.805,6.029,13.2993,4.60033,2469.984,2020-7-01T12:12:57Z
2020-07-01T10:15:15Z,42.805,6.029,13.2981,4.60041,2469.923,2020-7-01T12:16:00Z
2020-07-01T10:18:18Z,42.805,6.029,13.2986,4.60027,2469.984,2020-7-01T12:19:04Z
2020-07-01T10:21:21Z,42.805,6.029,13.2986,4.60019,2469.947,2020-7-01T12:22:07Z
2020-07-01T10:24:25Z,42.805,6.029,13.2983,4.60024,2469.947,2020-7-01T12:25:10Z
2020-07-01T10:27:28Z,42.805,6.029,13.2979,4.60003,2469.947,2020-7-01T12:28:14Z
2020-07-01T10:30:31Z,42.805,6.029,13.2983,4.60028,2469.937,2020-7-01T12:31:17Z
2020-07-01T10:33:35Z,42.805,6.029,13.2992,4.60021,2469.947,2020-7-01T12:34:20Z
2020-07-01T10:36:38Z,42.805,6.029,13.3002,4.60016,2469.97,2020-7-01T12:37:23Z
2020-07-01T10:39:41Z,42.805,6.029,13.2994,4.60029,2469.923,2020-7-01T12:40:27Z
2020-07-01T10:42:44Z,42.805,6.029,13.2986,4.60039,2469.96,2020-7-01T12:43:30Z
2020-07-01T10:45:47Z,42.805,6.029,13.2991,4.60039,2469.947,2020-7-01T12:46:33Z
2020-07-01T10:48:51Z,42.805,6.029,13.2987,4.60034,2469.947,2020-7-01T12:49:36Z
2020-07-01T10:51:54Z,42.805,6.029,13.2987,4.60078,2469.96,2020-7-01T12:52:40Z
2020-07-01T10:54:57Z,42.805,6.029,13.2991,4.60045,2469.984,2020-7-01T12:55:43Z
2020-07-01T10:58:00Z,42.805,6.029,13.2991,4.60038,2469.947,2020-7-01T12:58:46Z
2020-07-01T11:01:04Z,42.805,6.029,13.2991,4.60031,2469.947,2020-7-01T13:01:49Z
2020-07-01T11:04:07Z,42.805,6.029,13.2996,4.60048,2469.937,2020-7-01T13:04:53Z
2020-07-01T11:07:10Z,42.805,6.029,13.3000,4.60040,2469.947,2020-7-01T13:07:56Z
2020-07-01T11:10:13Z,42.805,6.029,13.2999,4.60035,2469.96,2020-7-01T13:10:59Z
2020-07-01T11:13:17Z,42.805,6.029,13.3002,4.60053,2469.979,2020-7-01T13:14:02Z
2020-07-01T11:16:20Z,42.805,6.029,13.2987,4.60051,2469.947,2020-7-01T13:17:05Z
2020-07-01T11:19:23Z,42.805,6.029,13.3003,4.60042,2469.947,2020-7-01T13:20:09Z
2020-07-01T11:22:26Z,42.805,6.029,13.2994,4.60046,2469.947,2020-7-01T13:23:12Z
2020-07-01T11:25:30Z,42.805,6.029,13.2991,4.60043,2469.97,2020-7-01T13:26:15Z
2020-07-01T11:28:33Z,42.805,6.029,13.2993,4.60049,2469.937,2020-7-01T13:29:18Z
2020-07-01T11:31:36Z,42.805,6.029,13.2986,4.60036,2469.984,2020-7-01T13:32:22Z
2020-07-01T11:34:39Z,42.805,6.029,13.2983,4.60013,2469.984,2020-7-01T13:35:25Z
2020-07-01T11:37:43Z,42.805,6.029,13.2993,4.60025,2469.993,2020-7-01T13:38:28Z
2020-07-01T11:40:46Z,42.805,6.029,13.2983,4.60021,2469.96,2020-7-01T13:41:31Z
2020-07-01T11:43:49Z,42.805,6.029,13.2990,4.60025,2469.947,2020-7-01T13:44:35Z
2020-07-01T11:46:52Z,42.805,6.029,13.2986,4.60006,2469.97,2020-7-01T13:47:38Z
2020-07-01T11:49:55Z,42.805,6.029,13.2983,4.60016,2469.947,2020-7-01T13:50:41Z
2020-07-01T11:52:59Z,42.805,6.029,13.2985,4.60020,2469.97,2020-7-01T13:53:44Z
2020-07-01T11:56:02Z,42.805,6.029,13.2976,4.60017,2469.984,2020-7-01T13:56:48Z
2020-07-01T11:59:05Z,42.805,6.029,13.2982,4.60005,2469.993,2020-7-01T13:59:51Z
2020-07-01T12:02:08Z,42.805,6.029,13.2986,4.60003,2469.993,2020-7-01T14:02:54Z
2020-07-01T12:05:12Z,42.805,6.029,13.2985,4.60013,2469.97,2020-7-01T14:05:57Z
2020-07-01T12:08:15Z,42.805,6.029,13.2988,4.60020,2469.984,2020-7-01T14:09:00Z
2020-07-01T12:11:18Z,42.805,6.029,13.2990,4.60026,2469.97,2020-7-01T14:12:04Z
2020-07-01T12:14:21Z,42.805,6.029,13.2991,4.60011,2469.97,2020-7-01T14:15:07Z
2020-07-01T12:17:24Z,42.805,6.029,13.2987,4.60015,2469.96,2020-7-01T14:18:10Z
2020-07-01T12:20:28Z,42.805,6.029,13.2983,4.59999,2470.007,2020-7-01T14:21:13Z
2020-07-01T12:23:31Z,42.805,6.029,13.2981,4.60011,2469.97,2020-7-01T14:24:17Z
2020-07-01T12:26:34Z,42.805,6.029,13.2988,4.60007,2469.97,2020-7-01T14:27:20Z
2020-07-01T12:29:37Z,42.805,6.029,13.2985,4.60004,2470.017,2020-7-01T14:30:23Z
2020-07-01T12:32:41Z,42.805,6.029,13.2987,4.60008,2470.007,2020-7-01T14:33:26Z
2020-07-01T12:35:44Z,42.805,6.029,13.2982,4.59993,2470.03,2020-7-01T14:36:29Z
2020-07-01T12:38:47Z,42.805,6.029,13.2985,4.60021,2469.984,2020-7-01T14:39:33Z
2020-07-01T12:41:50Z,42.805,6.029,13.2983,4.60001,2469.993,2020-7-01T14:42:36Z
2020-07-01T12:44:54Z,42.805,6.029,13.2976,4.59996,2469.984,2020-7-01T14:45:39Z
2020-07-01T12:47:57Z,42.805,6.029,13.2977,4.59993,2469.947,2020-7-01T14:48:42Z
2020-07-01T12:51:00Z,42.805,6.029,13.2984,4.59988,2469.984,2020-7-01T14:51:46Z
2020-07-01T12:54:03Z,42.805,6.029,13.2980,4.59987,2470.017,2020-7-01T14:54:49Z
2020-07-01T12:57:06Z,42.805,6.029,13.2979,4.60000,2469.97,2020-7-01T14:57:52Z
2020-07-01T13:00:10Z,42.805,6.029,13.2982,4.59998,2470.017,2020-7-01T15:00:55Z
2020-07-01T13:03:13Z,42.805,6.029,13.2980,4.60007,2470.017,2020-7-01T15:03:58Z
2020-07-01T13:06:16Z,42.805,6.029,13.2987,4.60012,2469.993,2020-7-01T15:07:02Z
2020-07-01T13:09:20Z,42.805,6.029,13.2983,4.59991,2470.03,2020-7-01T15:10:05Z
2020-07-01T13:12:23Z,42.805,6.029,13.2978,4.60002,2469.993,2020-7-01T15:13:08Z
2020-07-01T13:15:26Z,42.805,6.029,13.2979,4.59992,2469.993,2020-7-01T15:16:12Z
2020-07-01T13:18:29Z,42.805,6.029,13.2981,4.60005,2469.993,2020-7-01T15:19:15Z
2020-07-01T13:21:33Z,42.805,6.029,13.2980,4.59991,2470.03,2020-7-01T15:22:18Z
2020-07-01T13:24:36Z,42.805,6.029,13.2983,4.59993,2470.04,2020-7-01T15:25:21Z
2020-07-01T13:27:39Z,42.805,6.029,13.2990,4.60003,2469.993,2020-7-01T15:28:25Z
2020-07-01T13:30:42Z,42.805,6.029,13.2986,4.60003,2470.063,2020-7-01T15:31:28Z
2020-07-01T13:33:46Z,42.805,6.029,13.2977,4.59994,2470.03,2020-7-01T15:34:31Z
2020-07-01T13:36:49Z,42.805,6.029,13.2982,4.59994,2470.017,2020-7-01T15:37:35Z
2020-07-01T13:39:52Z,42.805,6.029,13.2980,4.59993,2470.017,2020-7-01T15:40:38Z
2020-07-01T13:42:55Z,42.805,6.029,13.2979,4.59994,2470.017,2020-7-01T15:43:41Z
2020-07-01T13:45:59Z,42.805,6.029,13.2982,4.59999,2470.063,2020-7-01T15:46:44Z
2020-07-01T13:49:02Z,42.805,6.029,13.2982,4.60001,2470.053,2020-7-01T15:49:48Z
2020-07-01T13:52:05Z,42.805,6.029,13.2983,4.60009,2470.04,2020-7-01T15:52:51Z
2020-07-01T13:55:08Z,42.805,6.029,13.2982,4.59999,2470.04,2020-7-01T15:55:54Z
2020-07-01T13:58:12Z,42.805,6.029,13.2978,4.59991,2470.077,2020-7-01T15:58:57Z
2020-07-01T14:01:15Z,42.805,6.029,13.2977,4.60009,2470.04,2020-7-01T16:02:01Z
2020-07-01T14:04:18Z,42.805,6.029,13.2978,4.59994,2470.063,2020-7-01T16:05:04Z
2020-07-01T14:07:21Z,42.805,6.029,13.2983,4.60011,2470.063,2020-7-01T16:08:07Z
2020-07-01T14:10:25Z,42.805,6.029,13.2978,4.60009,2470.063,2020-7-01T16:11:10Z
2020-07-01T14:13:28Z,42.805,6.029,13.2984,4.59993,2470.053,2020-7-01T16:14:13Z
2020-07-01T14:16:31Z,42.805,6.029,13.2983,4.60015,2470.1,2020-7-01T16:17:17Z
2020-07-01T14:19:34Z,42.805,6.029,13.2982,4.60025,2470.087,2020-7-01T16:20:20Z
2020-07-01T14:22:38Z,42.805,6.029,13.2979,4.60000,2470.063,2020-7-01T16:23:23Z
2020-07-01T14:25:41Z,42.805,6.029,13.2976,4.59987,2470.063,2020-7-01T16:26:26Z
2020-07-01T14:28:44Z,42.805,6.029,13.2979,4.59994,2470.087,2020-7-01T16:29:30Z
2020-07-01T14:31:47Z,42.805,6.029,13.2983,4.59994,2470.087,2020-7-01T16:32:33Z
2020-07-01T14:34:50Z,42.805,6.029,13.2979,4.59993,2470.1,2020-7-01T16:35:36Z
2020-07-01T14:37:54Z,42.805,6.029,13.2977,4.59991,2470.1,2020-7-01T16:38:39Z
2020-07-01T14:40:57Z,42.805,6.029,13.2986,4.59993,2470.063,2020-7-01T16:41:43Z
2020-07-01T14:44:00Z,42.805,6.029,13.2971,4.59988,2470.063,2020-7-01T16:44:46Z
2020-07-01T14:47:03Z,42.805,6.029,13.2978,4.59991,2470.124,2020-7-01T16:47:49Z
2020-07-01T14:50:07Z,42.805,6.029,13.2979,4.59996,2470.1,2020-7-01T16:50:52Z
2020-07-01T14:53:10Z,42.805,6.029,13.2976,4.59987,2470.063,2020-7-01T16:53:56Z
2020-07-01T14:56:13Z,42.805,6.029,13.2982,4.59987,2470.1,2020-7-01T16:56:59Z
2020-07-01T14:59:16Z,42.805,6.029,13.2976,4.59994,2470.087,2020-7-01T17:00:02Z
2020-07-01T15:02:20Z,42.805,6.029,13.2977,4.60011,2470.087,2020-7-01T17:03:05Z
2020-07-01T15:05:23Z,42.805,6.029,13.2991,4.60011,2470.063,2020-7-01T17:06:08Z
2020-07-01T15:08:26Z,42.805,6.029,13.2976,4.59990,2470.11,2020-7-01T17:09:12Z
2020-07-01T15:11:29Z,42.805,6.029,13.2979,4.59988,2470.087,2020-7-01T17:12:15Z
2020-07-01T15:14:32Z,42.805,6.029,13.2976,4.59984,2470.11,2020-7-01T17:15:18Z